$Date,$Time,DM0201B,DM0203B,DM0205B,DM0207B,DM0209B
09/11/98,00:00:01,83,3,-32,54,979
09/11/98,00:05:01,61,9,-32,56,979
09/11/98,00:10:01,48,21,-32,60,979
09/11/98,00:15:01,61,358,-32,62,979
09/11/98,00:20:01,82,14,-32,62,979
09/11/98,00:25:01,92,21,-32,62,979
09/11/98,00:30:01,103,20,-32,62,979
09/11/98,00:35:01,66,8,-32,66,979
09/11/98,00:40:01,97,17,-32,66,979
09/11/98,00:45:01,55,41,-32,64,979
09/11/98,00:50:01,57,13,-31,66,979
09/11/98,00:55:01,0,58,-31,68,979
09/11/98,01:00:01,63,20,-31,70,979
09/11/98,01:05:01,16,44,-31,70,979
09/11/98,01:10:01,42,51,-31,72,979
09/11/98,01:15:01,8,94,-31,72,979
09/11/98,01:20:01,42,70,-31,74,979
09/11/98,01:25:01,5,8,-31,74,979
09/11/98,01:30:01,7,55,-30,70,979
09/11/98,01:35:01,10,111,-30,68,979
09/11/98,01:40:01,6,63,-30,64,979
09/11/98,01:45:01,0,101,-30,64,979
09/11/98,01:50:01,90,140,-30,64,979
09/11/98,01:55:01,76,153,-30,60,979
09/11/98,02:00:01,96,145,-30,60,979
09/11/98,02:05:01,64,180,-30,60,979
09/11/98,02:10:01,42,138,-30,60,979
09/11/98,02:15:01,117,154,-30,58,979
09/11/98,02:20:01,10,128,-30,58,979
09/11/98,02:25:01,90,172,-29,54,979
09/11/98,02:30:01,59,136,-30,54,979
09/11/98,02:35:01,66,138,-30,52,979
09/11/98,02:40:01,46,152,-30,52,979
09/11/98,02:45:01,97,148,-30,52,979
09/11/98,02:50:01,87,149,-30,50,977
09/11/98,02:55:01,150,144,-29,48,977
09/11/98,03:00:01,94,151,-29,48,977
09/11/98,03:05:01,92,147,-29,48,977
09/11/98,03:10:01,112,159,-29,46,977
09/11/98,03:15:01,126,151,-29,44,977
09/11/98,03:20:01,101,166,-29,42,977
09/11/98,03:25:01,102,155,-29,40,977
09/11/98,03:30:01,122,156,-29,40,977
09/11/98,03:35:01,80,150,-29,38,977
09/11/98,03:40:01,30,116,-28,36,977
09/11/98,03:45:01,151,158,-28,36,977
09/11/98,03:50:01,148,143,-28,34,977
09/11/98,03:55:01,113,132,-28,32,977
09/11/98,04:00:01,94,157,-28,30,977
09/11/98,04:05:01,152,136,-28,28,977
09/11/98,04:10:01,163,168,-28,26,977
09/11/98,04:15:01,226,139,-27,26,977
09/11/98,04:20:01,183,159,-27,24,977
09/11/98,04:25:01,116,152,-27,22,977
09/11/98,04:30:01,142,165,-28,20,977
09/11/98,04:35:01,101,157,-28,18,977
09/11/98,04:40:01,138,152,-28,16,977
09/11/98,04:45:01,55,111,-28,16,977
09/11/98,04:50:01,90,171,-28,14,977
09/11/98,04:55:01,78,124,-28,12,977
09/11/98,05:00:01,120,170,-27,12,977
09/11/98,05:05:01,272,163,-27,10,977
09/11/98,05:10:01,131,106,-27,10,977
09/11/98,05:15:01,161,121,-27,8,977
09/11/98,05:20:01,67,156,-27,8,977
09/11/98,05:25:01,61,165,-28,6,977
09/11/98,05:30:01,181,165,-27,6,977
09/11/98,05:35:01,92,159,-27,4,977
09/11/98,05:40:01,147,147,-27,4,977
09/11/98,05:45:01,313,157,-27,4,977
09/11/98,05:50:01,98,169,-27,2,977
09/11/98,05:55:01,246,161,-27,2,977
09/11/98,06:00:01,261,168,-27,0,977
09/11/98,06:05:01,223,151,-26,0,977
09/11/98,06:10:01,157,165,-27,0,977
09/11/98,06:15:01,207,158,-26,0,977
09/11/98,06:20:01,458,171,-26,0,977
09/11/98,06:25:01,407,178,-26,0,977
09/11/98,06:30:01,383,178,-26,0,977
09/11/98,06:35:01,464,178,-26,0,977
09/11/98,06:40:01,360,186,-27,0,977
09/11/98,06:45:01,438,176,-26,0,977
09/11/98,06:50:01,347,186,-26,0,977
09/11/98,06:55:01,421,181,-26,0,977
09/11/98,07:00:01,508,186,-26,0,977
09/11/98,07:05:01,487,187,-26,0,977
09/11/98,07:10:01,462,186,-27,0,977
09/11/98,07:15:01,481,176,-26,0,977
09/11/98,07:20:01,390,188,-26,0,975
09/11/98,07:25:01,454,192,-25,0,975
09/11/98,07:30:01,368,176,-26,0,977
09/11/98,07:35:01,402,169,-26,0,977
09/11/98,07:40:01,338,191,-26,0,977
09/11/98,07:45:01,413,186,-26,0,977
09/11/98,07:50:01,437,182,-26,0,977
09/11/98,07:55:01,422,172,-26,0,975
09/11/98,08:00:01,507,167,-25,0,975
09/11/98,08:05:01,528,174,-25,0,975
09/11/98,08:10:01,527,163,-25,0,975
09/11/98,08:15:01,588,163,-25,0,975
09/11/98,08:20:01,551,163,-25,0,975
09/11/98,08:25:01,496,163,-25,0,975
09/11/98,08:30:01,530,166,-25,0,975
09/11/98,08:35:01,569,164,-25,0,975
09/11/98,08:40:01,505,164,-25,0,975
09/11/98,08:45:01,631,164,-25,0,975
09/11/98,08:50:01,637,164,-24,0,975
09/11/98,08:55:01,517,164,-24,0,975
09/11/98,09:00:01,565,165,-24,0,975
09/11/98,09:05:01,425,168,-25,0,975
09/11/98,09:10:01,631,166,-25,0,975
09/11/98,09:15:01,442,166,-25,0,975
09/11/98,09:20:01,468,155,-24,0,975
09/11/98,09:25:01,492,158,-24,0,975
09/11/98,09:30:01,546,169,-24,0,975
09/11/98,09:35:01,509,159,-24,0,975
09/11/98,09:40:01,576,159,-24,0,975
09/11/98,09:45:01,636,159,-24,0,975
09/11/98,09:50:01,575,160,-24,0,975
09/11/98,09:55:01,503,160,-24,0,975
09/11/98,10:00:01,470,160,-24,0,975
09/11/98,10:05:01,565,160,-24,0,975
09/11/98,10:10:01,485,160,-24,0,975
09/11/98,10:15:01,496,160,-24,0,975
09/11/98,10:20:01,466,160,-24,0,975
09/11/98,10:25:01,623,160,-24,0,975
09/11/98,10:30:01,491,160,-24,0,975
09/11/98,10:35:01,603,166,-24,0,975
09/11/98,10:40:01,536,163,-24,0,975
09/11/98,10:45:01,545,163,-24,0,975
09/11/98,10:50:01,500,163,-24,0,975
09/11/98,10:55:01,574,163,-24,0,975
09/11/98,11:00:01,564,160,-24,0,975
09/11/98,11:05:01,626,160,-24,0,975
09/11/98,11:10:01,470,160,-24,0,975
09/11/98,11:15:01,582,160,-24,0,975
09/11/98,11:20:01,503,160,-24,0,975
09/11/98,11:25:01,449,160,-24,0,975
09/11/98,11:30:01,496,159,-24,0,975
09/11/98,11:35:01,460,156,-24,0,975
09/11/98,11:40:01,420,156,-24,0,975
09/11/98,11:45:01,489,170,-24,0,975
09/11/98,11:50:01,449,159,-24,0,975
09/11/98,11:55:01,534,160,-24,0,975
09/11/98,12:00:01,451,160,-24,0,975
09/11/98,12:05:01,398,160,-24,0,975
09/11/98,12:10:01,412,160,-24,0,975
09/11/98,12:15:01,541,160,-24,0,975
09/11/98,12:20:01,582,155,-24,0,975
09/11/98,12:25:01,533,165,-24,0,975
09/11/98,12:30:01,524,165,-24,0,975
09/11/98,12:35:01,524,165,-24,0,975
09/11/98,12:40:01,472,165,-24,0,975
09/11/98,12:45:01,498,164,-24,0,975
09/11/98,12:50:01,531,164,-24,0,975
09/11/98,12:55:01,504,164,-24,0,975
09/11/98,13:00:01,436,164,-23,0,975
09/11/98,13:05:01,435,164,-23,0,975
09/11/98,13:10:01,501,164,-24,0,975
09/11/98,13:15:01,433,162,-24,0,975
09/11/98,13:20:01,493,166,-24,0,975
09/11/98,13:25:01,455,166,-23,0,975
09/11/98,13:30:01,504,166,-23,0,975
09/11/98,13:35:01,433,163,-23,0,975
09/11/98,13:40:01,450,163,-23,0,975
09/11/98,13:45:01,448,174,-23,0,975
09/11/98,13:50:01,521,160,-23,0,975
09/11/98,13:55:01,457,172,-23,0,975
09/11/98,14:00:01,446,172,-23,0,975
09/11/98,14:05:01,522,162,-23,0,975
09/11/98,14:10:01,501,176,-23,0,975
09/11/98,14:15:01,471,166,-23,0,975
09/11/98,14:20:01,478,166,-23,0,975
09/11/98,14:25:01,478,166,-23,0,975
09/11/98,14:30:01,501,178,-23,0,975
09/11/98,14:35:01,487,168,-23,0,975
09/11/98,14:40:01,422,168,-23,0,975
09/11/98,14:45:01,489,168,-23,0,975
09/11/98,14:50:01,423,168,-23,0,975
09/11/98,14:55:01,466,168,-23,0,975
09/11/98,15:00:01,397,168,-23,0,975
09/11/98,15:05:01,402,168,-23,0,975
09/11/98,15:10:01,377,168,-23,0,975
09/11/98,15:15:01,447,168,-23,0,975
09/11/98,15:20:01,469,168,-23,0,975
09/11/98,15:25:01,386,168,-23,0,975
09/11/98,15:30:01,427,168,-23,0,975
09/11/98,15:35:01,430,168,-23,0,975
09/11/98,15:40:01,508,168,-23,0,975
09/11/98,15:45:01,350,168,-23,0,975
09/11/98,15:50:01,446,168,-23,0,975
09/11/98,15:55:01,380,165,-23,0,975
09/11/98,16:00:01,412,167,-23,0,975
09/11/98,16:05:01,477,166,-23,0,975
09/11/98,16:10:01,392,166,-22,0,975
09/11/98,16:15:01,404,166,-22,0,975
09/11/98,16:20:01,400,166,-22,0,975
09/11/98,16:25:01,450,166,-22,0,975
09/11/98,16:30:01,416,166,-22,0,975
09/11/98,16:35:01,382,176,-22,0,975
09/11/98,16:40:01,383,176,-22,0,975
09/11/98,16:45:01,400,166,-22,0,975
09/11/98,16:50:01,387,166,-22,0,975
09/11/98,16:55:01,394,166,-22,0,975
09/11/98,17:00:01,398,166,-22,0,975
09/11/98,17:05:01,334,166,-22,0,975
09/11/98,17:10:01,365,166,-22,0,975
09/11/98,17:15:01,355,166,-22,0,975
09/11/98,17:20:01,380,169,-22,0,975
09/11/98,17:25:01,363,169,-22,0,975
09/11/98,17:30:01,405,169,-22,0,975
09/11/98,17:35:01,376,169,-22,0,975
09/11/98,17:40:01,354,169,-22,0,975
09/11/98,17:45:01,356,167,-22,0,975
09/11/98,17:50:01,346,167,-22,0,975
09/11/98,17:55:01,411,167,-22,0,975
09/11/98,18:00:01,337,167,-22,0,975
09/11/98,18:05:01,310,167,-22,0,975
09/11/98,18:10:01,319,167,-22,0,975
09/11/98,18:15:01,216,152,-22,0,975
09/11/98,18:20:01,249,154,-22,0,975
09/11/98,18:25:01,220,165,-22,0,975
09/11/98,18:30:01,143,161,-22,0,975
09/11/98,18:35:01,172,161,-22,0,975
09/11/98,18:40:01,134,155,-22,0,975
09/11/98,18:45:01,138,163,-22,0,975
09/11/98,18:50:01,150,147,-22,0,975
09/11/98,18:55:01,158,168,-22,0,975
09/11/98,19:00:01,196,158,-22,0,975
09/11/98,19:05:01,177,160,-22,0,975
09/11/98,19:10:01,153,168,-22,0,975
09/11/98,19:15:01,171,166,-22,0,975
09/11/98,19:20:01,229,162,-22,0,975
09/11/98,19:25:01,166,170,-22,0,975
09/11/98,19:30:01,170,166,-22,0,975
09/11/98,19:35:01,134,159,-22,0,975
09/11/98,19:40:01,160,162,-22,0,975
09/11/98,19:45:01,173,155,-22,0,975
09/11/98,19:50:01,86,161,-22,0,975
09/11/98,19:55:01,137,168,-22,0,975
09/11/98,20:00:01,124,143,-22,0,975
09/11/98,20:05:01,86,135,-22,0,975
09/11/98,20:10:01,111,147,-22,2,975
09/11/98,20:15:01,97,155,-22,2,975
09/11/98,20:20:01,96,138,-22,2,975
09/11/98,20:25:01,143,159,-22,4,975
09/11/98,20:30:01,154,159,-22,4,975
09/11/98,20:35:01,160,155,-22,6,975
09/11/98,20:40:01,129,155,-22,6,975
09/11/98,20:45:01,113,166,-22,8,975
09/11/98,20:50:01,167,138,-22,10,975
09/11/98,20:55:01,152,154,-22,12,975
09/11/98,21:00:01,148,147,-22,12,975
09/11/98,21:05:01,137,146,-22,14,975
09/11/98,21:10:01,146,155,-22,16,975
09/11/98,21:15:01,92,156,-22,18,975
09/11/98,21:20:01,187,148,-22,18,975
09/11/98,21:25:01,102,144,-22,20,975
09/11/98,21:30:01,124,160,-22,22,975
09/11/98,21:35:01,48,168,-22,24,975
09/11/98,21:40:01,36,215,-22,24,975
09/11/98,21:45:01,19,250,-23,26,975
09/11/98,21:50:01,21,169,-22,28,975
09/11/98,21:55:01,61,197,-22,30,975
09/11/98,22:00:01,97,181,-22,32,975
09/11/98,22:05:01,32,219,-22,32,975
09/11/98,22:10:01,137,171,-22,34,975
09/11/98,22:15:01,33,134,-22,36,975
09/11/98,22:20:01,33,181,-22,36,975
09/11/98,22:25:01,115,168,-22,38,975
09/11/98,22:30:01,149,207,-22,40,973
09/11/98,22:35:01,189,187,-22,42,973
09/11/98,22:40:01,210,187,-22,44,973
09/11/98,22:45:01,129,175,-22,44,973
09/11/98,22:50:01,96,175,-22,46,973
09/11/98,22:55:01,75,184,-22,48,973
09/11/98,23:00:01,63,184,-22,48,973
09/11/98,23:05:01,78,184,-22,50,973
09/11/98,23:10:01,58,153,-22,50,973
09/11/98,23:15:01,27,162,-22,52,973
09/11/98,23:20:01,29,193,-22,54,973
09/11/98,23:25:01,36,200,-22,54,973
09/11/98,23:30:01,62,182,-22,56,973
09/11/98,23:35:01,27,200,-21,58,973
09/11/98,23:40:01,36,212,-22,60,973
09/11/98,23:45:01,14,201,-22,60,973
09/11/98,23:50:01,1,136,-22,60,973
09/11/98,23:55:01,5,184,-21,60,973
09/12/98,00:00:01,5,184,-22,60,973
